Regional Weather Roundup
Issued by NWS Huntsville, AL

Home | Current Version | Previous Version | Text Only | Print | Product List | Glossary On
Versions: 1 2 3 4 5 6 7 8 9 10 11 12 13 14 15 16 17 18 19 20 21 22 23 24 25 26 27 28
000
ASUS44 KHUN 180810
RWRHUN

WEATHER ROUNDUP FOR THE TENNESSEE VALLEY
NATIONAL WEATHER SERVICE HUNTSVILLE AL
300 AM CDT WED OCT 18 2017

ALZ001>004-180900-
NORTHWEST ALABAMA

CITY           SKY/WX    TMP DP  RH WIND       PRES   REMARKS
COURTLAND HCN    N/A     45 N/A N/A CALM        N/A
RUSSELLVILLE     N/A     41 N/A N/A MISG        N/A
SHOALS AIRPORT CLEAR     46  43  89 CALM      30.26S
SHOALS TVA RES   N/A     45 N/A N/A MISG        N/A
$$

ALZ005>007-016-180900-
NORTH CENTRAL ALABAMA

CITY           SKY/WX    TMP DP  RH WIND       PRES   REMARKS
CULLMAN AG STN   N/A     45 N/A N/A CALM        N/A
DECATUR AP     CLEAR     42  42 100 E3        30.27S
HUNTSVILLE AP  CLEAR     47  47 100 SE5       30.26S
MERIDIANVILLE  CLEAR     43  43 100 CALM      30.27S
REDSTONE ARSN  CLEAR     46  46 100 CALM      30.25F
VINEMONT AP    FAIR      53  44  71 SE6       30.28S
$$

ALZ008>010-180900-
NORTHEAST ALABAMA

CITY           SKY/WX    TMP DP  RH WIND       PRES   REMARKS
ALBERTVILLE    CLEAR     46  46 100 E3        30.27R
FORT PAYNE     CLEAR     41  39  93 CALM      30.28S
SCOTTSBORO AP  CLEAR     45  45 100 CALM      30.29S
SCOTTSBORO HCN   N/A     43 N/A N/A MISG        N/A
VALLEY HEAD      N/A     43 N/A N/A MISG        N/A
$$

TNZ076-096-097-180900-
SOUTHEASTERN MIDDLE TENNESSEE

CITY           SKY/WX    TMP DP  RH WIND       PRES   REMARKS
TULLAHOMA        N/A     43  39  87 CALM      30.27S
WINCHESTER     CLEAR     46  43  87 E7          N/A
$$

...SURROUNDING SITES...

CITY           SKY/WX    TMP DP  RH WIND       PRES   REMARKS
ATLANTA        CLEAR     52  43  71 E10       30.28S
ANNISTON       CLEAR     49  45  86 NE5       30.28S
BIRMINGHAM     CLEAR     51  45  79 CALM      30.28S
CHATTANOOGA    PTCLDY    47  45  93 CALM      30.30S
CORINTH        FOG       43  41  93 CALM      30.24S VSB 1/2
DALTON         CLEAR     43  43 100 CALM      30.31F
GADSDEN        CLEAR     44  44 100 CALM      30.29S
GOLDEN TRNGL   CLEAR     52  47  83 E3        30.25S
HALEYVILLE     FAIR      48  45  89 E3        30.27F
JACKSON TN     PTCLDY    42  42 100 CALM      30.24S
MEMPHIS        CLEAR     55  47  74 S8        30.22R
NASHVILLE      CLEAR     45  42  89 CALM      30.27S
OXFORD MS      FAIR      45  43  93 CALM      30.25R
ROME           CLEAR     45  45 100 CALM      30.29S
SAVANNAH       CLEAR     39  39 100 CALM      30.24F
SELMER         CLEAR     46  45  93 CALM      30.24S
TUPELO         CLEAR     46  43  89 CALM      30.23F
TUSCALOOSA     CLEAR     49  49 100 CALM      30.26R
$$

...GULF COAST WEATHER...

CITY           SKY/WX    TMP DP  RH WIND       PRES   REMARKS
GULFPORT       CLEAR     60  53  77 NE5       30.15F
PASCAGOULA     PTCLDY    57  51  80 NE5       30.17S
MOBILE         PTCLDY    55  50  83 NE6       30.18F
GULF SHORES    SUNNY     57  49  75 NE7       30.16S
PENSACOLA      CLEAR     61  47  59 NE10      30.16S
DESTIN         CLEAR     64  47  53 E10       30.17S
PANAMA CITY    CLEAR     57  47  68 NE7       30.16F
APPALACHICOLA  PTCLDY    58  51  78 NE10      30.14F
$$





USA.gov is the U.S. government's official web portal to all federal, state and local government web resources and services.